Orbital Elements at Epoch 2459000.5 (2020-May-31.0) TDB
Reference: JPL 29 (heliocentric ecliptic J2000)
Element | Value | Uncertainty (1-sigma) | Units |
e | .1900165313382016 | 3.1809e-08 | |
a | 2.328198026529807 | 6.8689e-09 | au |
q | 1.885801913260167 | 7.3964e-08 | au |
i | 6.308940467076135 | 4.1826e-06 | deg |
node | 203.8968413536562 | 3.3547e-05 | deg |
peri | 63.09405571846875 | 3.535e-05 | deg |
M | 100.2187427794577 | 1.2307e-05 | deg |
tp | 2458639.277535303940 (2019-Jun-04.77753530) | 4.3631e-05 | TDB |
period | 1297.562548521976 3.55 | 5.7423e-06 1.572e-08 | d yr |
n | .2774432727039385 | 1.2278e-09 | deg/d |
Q | 2.770594139799448 | 8.1742e-09 | au |
|
| | Orbit Determination Parameters
Additional Information
|